N172SB NZNE-NZKK

Flight info

Callsign N172SB
Flight time N/A
Altitude 2000
Route DCT MHED1 DCT BHEAD DCT OPON1 DCT PQURY DCT
Aircraft C172/L-SFG/C

Departure

Time 2026-04-11 11:40
Airport North Shore Aerodrome (NZNE)

Arrival

Time N/A
Airport Kerikeri Airport (NZKK)
Time Latitude Longitude Altitude Speed Heading
2026-04-11 11:16 -36.65727 174.65527 196 ft 0 kts 130°
2026-04-11 11:22 -36.65726 174.65526 -86 ft 0 kts 130°
2026-04-11 11:22 -36.65719 174.65516 203 ft 0 kts 135°
2026-04-11 11:22 -36.65720 174.65517 -81 ft 6 kts 277°
2026-04-11 11:22 -36.65727 174.65527 135 ft 0 kts 130°
2026-04-11 11:24 -36.65738 174.65524 197 ft 9 kts 226°
2026-04-11 11:24 -36.65791 174.65419 196 ft 17 kts 229°
2026-04-11 11:24 -36.65889 174.65289 196 ft 20 kts 227°
2026-04-11 11:25 -36.65862 174.65251 197 ft 16 kts 40°
2026-04-11 11:25 -36.65771 174.65344 197 ft 17 kts 357°
2026-04-11 11:25 -36.65663 174.65377 198 ft 16 kts 36°
2026-04-11 11:25 -36.65623 174.65420 195 ft 0 kts 41°
2026-04-11 11:27 -36.65620 174.65423 195 ft 4 kts 42°
2026-04-11 11:27 -36.65614 174.65430 197 ft 0 kts 42°
2026-04-11 11:28 -36.65612 174.65432 199 ft 3 kts 42°
2026-04-11 11:29 -36.65607 174.65439 192 ft 0 kts 40°
2026-04-11 11:31 -36.65606 174.65439 137 ft 0 kts 40°
2026-04-11 11:37 -36.65587 174.65427 193 ft 13 kts 283°
2026-04-11 11:38 -36.65603 174.65328 197 ft 7 kts 121°
2026-04-11 11:38 -36.65577 174.65379 197 ft 6 kts 94°
2026-04-11 11:38 -36.65593 174.65454 200 ft 29 kts 109°
2026-04-11 11:38 -36.65684 174.65872 206 ft 68 kts 107°
2026-04-11 11:39 -36.65833 174.66448 291 ft 83 kts 109°
2026-04-11 11:39 -36.65988 174.67106 585 ft 74 kts 101°
2026-04-11 11:39 -36.66063 174.67719 743 ft 75 kts 105°
2026-04-11 11:39 -36.66144 174.68172 757 ft 80 kts 104°
2026-04-11 11:40 -36.66263 174.68887 716 ft 103 kts 105°
2026-04-11 11:40 -36.66426 174.69833 731 ft 118 kts 102°
2026-04-11 11:40 -36.66408 174.70810 857 ft 120 kts 63°
2026-04-11 11:40 -36.65683 174.71189 885 ft 122 kts 343°
2026-04-11 11:41 -36.64923 174.70588 976 ft 138 kts 318°
2026-04-11 11:41 -36.64487 174.69454 912 ft 160 kts 286°
2026-04-11 11:41 -36.64390 174.69044 817 ft 165 kts 285°
2026-04-11 11:41 -36.64387 174.69034 815 ft 165 kts 285°
2026-04-11 11:42 -36.64121 174.67769 951 ft 140 kts 283°
2026-04-11 11:42 -36.63916 174.66760 1373 ft 108 kts 284°
2026-04-11 11:42 -36.63703 174.65879 1463 ft 114 kts 284°
2026-04-11 11:42 -36.63510 174.64946 1609 ft 112 kts 283°
2026-04-11 11:43 -36.63302 174.63963 1570 ft 124 kts 284°
2026-04-11 11:43 -36.63105 174.63061 1493 ft 136 kts 284°
2026-04-11 11:43 -36.62691 174.62050 1551 ft 126 kts 306°
2026-04-11 11:43 -36.62127 174.61167 1584 ft 146 kts 310°
2026-04-11 11:44 -36.61554 174.60139 1804 ft 146 kts 310°
2026-04-11 11:44 -36.60884 174.59072 1736 ft 165 kts 311°
2026-04-11 11:44 -36.60133 174.58017 1836 ft 156 kts 310°
2026-04-11 11:44 -36.59427 174.57020 1898 ft 156 kts 312°
2026-04-11 11:45 -36.58745 174.55957 1838 ft 164 kts 315°
2026-04-11 11:45 -36.58052 174.54750 1702 ft 174 kts 312°
2026-04-11 11:45 -36.57366 174.53541 1753 ft 167 kts 313°
2026-04-11 11:45 -36.56663 174.52414 1798 ft 164 kts 318°
2026-04-11 11:46 -36.55846 174.51455 1773 ft 161 kts 334°
2026-04-11 11:46 -36.55016 174.50542 2054 ft 168 kts 307°
2026-04-11 11:46 -36.54584 174.49015 1471 ft 200 kts 279°
2026-04-11 11:46 -36.54514 174.47628 2241 ft 148 kts 257°
2026-04-11 11:47 -36.54662 174.46049 1297 ft 202 kts 250°
2026-04-11 11:47 -36.54999 174.44477 234 ft 171 kts 244°
2026-04-11 11:47 -36.55411 174.43309 541 ft 124 kts 235°
2026-04-11 11:47 -36.55594 174.42260 708 ft 134 kts 243°
2026-04-11 11:48 -36.55851 174.41005 515 ft 155 kts 251°
2026-04-11 11:48 -36.56147 174.39855 836 ft 124 kts 246°
2026-04-11 11:48 -36.56381 174.38820 552 ft 133 kts 245°
2026-04-11 11:48 -36.56623 174.37692 450 ft 115 kts 258°
2026-04-11 11:49 -36.56585 174.36959 13 ft 1 kts 305°
2026-04-11 11:49 -36.56080 174.36150 1049 ft 178 kts 317°
2026-04-11 11:49 -36.55324 174.35140 1295 ft 143 kts 320°
2026-04-11 11:49 -36.54656 174.34276 1189 ft 164 kts 316°
2026-04-11 11:50 -36.54028 174.33592 1926 ft 18 kts 245°
2026-04-11 11:50 -36.54319 174.33681 223 ft 174 kts 139°
2026-04-11 11:50 -36.54190 174.34685 815 ft 104 kts 34°
2026-04-11 11:50 -36.65727 174.65527 732 ft 0 kts 130°